[[{"header":{"parameterUnit":"m.s-1","parameterCategory":1,"la1":30.2991,"la2":30.254,"lo1":-89.0895,"lo2":-89.0444,"dy":0.0017,"dx":0.0017,"nx":28,"ny":28,"refTime":"2025-08-30T21:00:00:Z","depth":0,"parameterNumber":2,"parameterNumberName":"U-component_of_WINDS"},"data":[0,0,0,0,0,0,0,0,0,0,0,0,0,0,0,0,0,0,0,0,0,0,0,0,0,0,0,0,0,0,0,0,0,0,0,0,0,0,0,0,0,0,0,0,0,0,0,0,0,0,0,0,0,0,0,0,0,0,-3.5817,-3.5816,0,-3.5789,-3.5789,-3.5789,-3.5587,-3.5583,-3.5578,-3.5573,-3.5552,-3.5556,-3.556,0,0,0,0,0,0,0,0,0,0,0,0,0,-3.5699,-3.5703,-3.5817,-3.5816,-3.5816,-3.5789,-3.5789,-3.5789,-3.5588,-3.5582,-3.5576,-3.5571,-3.5551,-3.5556,-3.5561,0,0,0,0,0,0,0,0,0,0,0,0,0,-3.572,-3.5704,-3.5817,-3.5713,-3.5703,-3.579,-3.5789,-3.5789,-3.559,-3.5582,-3.5575,-3.5568,-3.5549,-3.5555,-3.5561,-3.5748,0,0,-3.558,-3.5583,0,0,0,0,0,0,0,0,-3.5719,-3.5724,-3.5728,-3.572,-3.5709,-3.5684,-3.574,-3.5775,-3.5592,-3.5633,-3.5573,-3.5564,-3.5603,-3.5604,-3.5615,-3.5747,-3.5746,-3.558,-3.5584,-3.5587,-3.5588,0,0,0,0,0,0,0,-3.5717,-3.5724,-3.5806,-3.5729,-3.5717,-3.5669,-3.5663,-3.5746,-3.566,-3.5629,-3.5614,-3.5613,-3.5596,-3.561,-3.5613,-3.5746,-3.558,-3.5586,-3.5589,-3.5592,-3.6027,-3.6035,0,0,0,0,0,0,-3.573,-3.5724,-3.5807,-3.5805,-3.5695,-3.5677,-3.5671,-3.57,-3.5659,-3.5645,-3.562,-3.5604,-3.5603,-3.5606,-3.5612,-3.5827,-3.5587,-3.5592,-3.5596,-3.6019,-3.6029,-3.6037,0,0,0,0,0,0,-3.5728,-3.5739,-3.5808,-3.5761,-3.5766,-3.5687,-3.5721,-3.5703,-3.5717,-3.5651,-3.5636,-3.5649,-3.5597,-3.5603,-3.5715,-3.5823,-3.5595,-3.5601,-3.601,-3.6022,-3.6033,-3.626,0,0,0,0,0,0,-3.5726,-3.574,-3.5809,-3.5764,-3.5769,-3.5911,-3.5728,-3.5708,-3.5727,-3.5706,-3.5675,-3.5663,-3.5592,-3.5707,-3.5721,-3.5828,-3.5606,-3.6,-3.6015,-3.6029,-3.6242,-3.6278,-3.6308,0,0,0,0,0,-3.5722,-3.5876,-3.5814,-3.5825,-3.5854,-3.5917,-3.5921,-3.5834,-3.5737,-3.5806,-3.5764,-3.5664,-3.5809,-3.572,-3.5734,-3.5845,-3.5993,-3.6011,-3.6028,-3.6227,-3.6271,-3.6307,0,0,0,0,0,0,-3.594,-3.5868,-3.5799,-3.5942,-3.5937,-3.5883,-3.5969,-3.5883,-3.5907,-3.5888,-3.578,-3.5775,-3.5903,-3.5884,-3.5786,-3.6022,-3.5883,-3.5905,-3.603,-3.607,-3.6103,-3.6106,-3.5611,0,0,0,0,0,-3.6004,-3.606,-3.5995,-3.6128,-3.6128,-3.605,-3.6074,-3.6007,-3.5998,-3.5996,-3.5962,-3.596,-3.6003,-3.6036,-3.6073,-3.6237,-3.6228,-3.632,-3.6353,-3.6381,-3.6401,-3.6486,-3.6526,-3.6096,-3.6096,-3.6095,0,0,-3.6139,-3.6106,-3.6149,-3.6171,-3.6159,-3.622,-3.6049,-3.6122,-3.6167,-3.6008,-3.611,-3.6085,-3.6075,-3.6214,-3.6273,-3.6202,-3.6517,-3.6403,-3.6426,-3.6431,-3.6508,-3.6549,-3.6586,-3.6108,-3.6106,-3.6104,0,0,-3.6415,-3.6396,-3.6503,-3.6494,-3.6477,-3.6422,-3.6449,-3.6407,-3.6383,-3.6484,-3.6365,-3.6417,-3.6497,-3.6494,-3.6503,-3.6774,-3.6684,-3.6789,-3.6963,-3.7047,-3.7081,-3.711,-3.7208,-3.7244,-3.681,-3.681,-3.6811,0,-3.6586,-3.6671,-3.6571,-3.665,-3.6663,-3.6518,-3.6627,-3.6623,-3.6621,-3.6634,-3.6554,-3.6648,-3.6631,-3.6767,-3.6832,-3.6844,-3.6872,-3.6794,-3.7084,-3.7112,-3.7138,-3.723,-3.7267,-3.6823,-3.6822,-3.682,-3.6819,0,-3.6881,-3.6942,-3.7031,-3.7029,-3.7052,-3.7146,-3.7061,-3.7096,-3.7027,-3.6981,-3.7085,-3.7059,-3.7088,-3.7114,-3.7049,-3.724,-3.7197,-3.7102,-3.6961,-3.7194,-3.7278,-3.7313,-3.6842,-3.6837,-3.6833,-3.683,0,0,-3.7298,-3.7235,-3.727,-3.7266,-3.7234,-3.7281,-3.7368,-3.7393,-3.7426,-3.7428,-3.7499,-3.7568,-3.7478,-3.7489,-3.7421,-3.7494,-3.7711,-3.739,-3.7388,-3.7451,-3.7921,-3.7994,-3.8036,-3.7649,-3.7656,-3.7661,-3.7922,0,-3.7564,-3.7707,-3.7617,-3.7775,-3.783,-3.7691,-3.7767,-3.7757,-3.7716,-3.7758,-3.7713,-3.7764,-3.7642,-3.7647,-3.7714,-3.7671,-3.7804,-3.765,-3.7717,-3.772,-3.7725,-3.808,-3.8157,-3.8405,-3.7954,-3.796,-3.7964,0,-3.7894,-3.7906,-3.8069,-3.8024,-3.8044,-3.8113,-3.8128,-3.8169,-3.8155,-3.812,-3.813,-3.8043,-3.8126,-3.7985,-3.8099,-3.7997,-3.8018,-3.8001,-3.8008,-3.8012,-3.7858,-3.8095,-3.8482,-3.852,-3.8015,-3.801,-3.8007,0,-3.8182,-3.824,-3.8344,-3.8345,-3.8295,-3.8347,-3.8329,-3.8306,-3.8327,-3.834,-3.8352,-3.8376,-3.839,-3.8412,-3.8334,-3.8238,-3.8458,-3.8311,-3.8433,-3.8436,-3.8488,-3.8486,-3.8885,-3.85,-3.8499,-3.8499,-3.8498,0,-3.8489,-3.8594,-3.8472,-3.8537,-3.865,-3.8546,-3.8661,-3.8629,-3.861,-3.8666,-3.8548,-3.8604,-3.8497,-3.8542,-3.8482,-3.8586,-3.8593,-3.8568,-3.8551,-3.8579,-3.8583,-3.8593,-3.8575,-3.8508,-3.8506,-3.8504,-3.8503,0,-3.8832,-3.8754,-3.8858,-3.88,-3.8788,-3.8875,-3.8826,-3.8884,-3.8833,-3.8906,-3.8918,-3.884,-3.8887,-3.881,-3.885,-3.8809,-3.8952,-3.8909,-3.8957,-3.8945,-3.9071,-3.9061,-3.9492,-3.9544,-3.9126,-3.913,-3.9133,0,-3.9034,-3.911,-3.906,-3.9087,-3.9075,-3.9122,-3.914,-3.904,-3.9064,-3.9052,-3.9112,-3.9148,-3.9172,-3.9254,-3.9202,-3.9232,-3.9188,-3.9337,-3.9192,-3.9217,-3.9191,-3.9188,-3.9195,-3.9368,-3.9373,-3.9377,-3.938,0,-3.94,-3.9357,-3.9386,-3.9402,-3.9426,-3.9435,-3.9436,-3.9466,-3.936,-3.9394,-3.9438,-3.9457,-3.9494,-3.9533,-3.9548,-3.9531,-3.944,-3.9426,-3.9456,-3.9486,-3.9511,-3.95,-3.904,-3.9417,-3.9413,-3.9411,-3.9409,-3.9407,-3.9679,-3.974,-3.9712,-3.9749,-3.9737,-3.9739,-3.979,-3.9744,-3.9778,-3.9799,-3.9738,-3.9798,-3.9779,-3.979,-3.9783,-3.9829,-3.9763,-3.9807,-3.9818,-3.9831,-3.985,-3.9503,-3.9832,-3.983,-3.9829,-3.9828,-3.9827,0,-4.0039,-4.0013,-4.0048,-4.0049,-4.0078,-3.9984,-3.9979,-4.0011,-4.0063,-4.0052,-4.0076,-4.0128,-4.0163,-4.0113,-4.014,-4.0187,-4.0145,-4.0197,-4.0194,-4.0191,-3.9907,-3.9879,-4.023,-4.023,-4.023,-4.023,-4.023,-4.023,-4.023,-4.0328,-4.0281,-4.0372,-4.0345,-4.04,-4.0405,-4.0406,-4.0396,-4.0458,-4.0485,-4.0451,-4.0424,-4.0448,-4.0477,-4.0461,-4.0477,-4.0544,-4.0515,-4.0251,-4.0212,-4.0174,-4.0147,-4.0549,-4.0549,-4.0794,-4.0796,-4.0798]},{"header":{"parameterUnit":"m.s-1","parameterCategory":1,"la1":30.2991,"la2":30.254,"lo1":-89.0895,"lo2":-89.0444,"dy":0.0017,"dx":0.0017,"nx":28,"ny":28,"refTime":"2025-08-30T21:00:00:Z","depth":0,"parameterNumber":3,"parameterNumberName":"V-component_of_WINDS"},"data":[0,0,0,0,0,0,0,0,0,0,0,0,0,0,0,0,0,0,0,0,0,0,0,0,0,0,0,0,0,0,0,0,0,0,0,0,0,0,0,0,0,0,0,0,0,0,0,0,0,0,0,0,0,0,0,0,0,0,-2.8831,-2.8831,0,-2.8886,-2.8887,-2.8887,-2.8866,-2.8865,-2.8864,-2.8863,-2.8919,-2.8922,-2.8924,0,0,0,0,0,0,0,0,0,0,0,0,0,-2.8705,-2.8708,-2.8831,-2.8831,-2.8832,-2.8886,-2.8887,-2.8887,-2.8867,-2.8865,-2.8864,-2.8862,-2.8918,-2.8921,-2.8925,0,0,0,0,0,0,0,0,0,0,0,0,0,-2.876,-2.8708,-2.8831,-2.8828,-2.8829,-2.8886,-2.8887,-2.8888,-2.8867,-2.8865,-2.8863,-2.8861,-2.8917,-2.8921,-2.8925,-2.8988,0,0,-2.8937,-2.8939,0,0,0,0,0,0,0,0,-2.8757,-2.8765,-2.8828,-2.8829,-2.8829,-2.8867,-2.8863,-2.8921,-2.8867,-2.8852,-2.8863,-2.8861,-2.8903,-2.8908,-2.8923,-2.899,-2.8993,-2.8938,-2.894,-2.8942,-2.8943,0,0,0,0,0,0,0,-2.8753,-2.8762,-2.8853,-2.8829,-2.883,-2.8824,-2.8829,-2.8874,-2.8888,-2.8854,-2.8852,-2.8859,-2.8903,-2.8919,-2.8924,-2.8994,-2.8937,-2.8941,-2.8944,-2.8945,-2.9113,-2.9115,0,0,0,0,0,0,-2.8749,-2.8759,-2.8851,-2.8854,-2.8788,-2.8828,-2.8834,-2.8857,-2.8887,-2.889,-2.8861,-2.8858,-2.8913,-2.8919,-2.8926,-2.9,-2.8942,-2.8945,-2.8948,-2.9111,-2.9113,-2.9115,0,0,0,0,0,0,-2.8747,-2.8758,-2.8849,-2.8806,-2.8817,-2.8832,-2.8858,-2.8859,-2.8875,-2.8893,-2.8895,-2.8874,-2.8912,-2.892,-2.8972,-2.9001,-2.8947,-2.8951,-2.9108,-2.9111,-2.9114,-2.9149,0,0,0,0,0,0,-2.8743,-2.8757,-2.8782,-2.8807,-2.882,-2.8894,-2.886,-2.8862,-2.8882,-2.8879,-2.8906,-2.8909,-2.8911,-2.8966,-2.8976,-2.9006,-2.8954,-2.9106,-2.911,-2.9113,-2.9145,-2.9153,-2.9159,0,0,0,0,0,-2.8739,-2.879,-2.8783,-2.8794,-2.8851,-2.8896,-2.8903,-2.8905,-2.8884,-2.8909,-2.892,-2.8908,-2.8997,-2.8972,-2.8982,-2.9014,-2.9104,-2.9108,-2.9113,-2.9142,-2.9151,-2.9159,0,0,0,0,0,0,-2.8768,-2.8793,-2.8786,-2.8847,-2.8869,-2.8893,-2.8923,-2.8915,-2.8944,-2.894,-2.8941,-2.8947,-2.9,-2.9012,-2.8984,-2.9075,-2.9047,-2.9054,-2.9065,-2.9074,-2.9081,-2.9077,-2.8957,0,0,0,0,0,-2.8781,-2.8816,-2.8836,-2.8888,-2.8899,-2.8909,-2.8929,-2.8928,-2.8952,-2.8962,-2.8976,-2.9,-2.9032,-2.9054,-2.9086,-2.9147,-2.9152,-2.9174,-2.9181,-2.9187,-2.9193,-2.9224,-2.9234,-2.913,-2.913,-2.913,0,0,-2.8809,-2.8827,-2.8849,-2.8894,-2.8911,-2.8947,-2.8918,-2.8957,-2.8983,-2.8968,-2.9017,-2.9028,-2.9054,-2.911,-2.9136,-2.9122,-2.9222,-2.9192,-2.9197,-2.92,-2.923,-2.9239,-2.9248,-2.9133,-2.9133,-2.9132,0,0,-2.8878,-2.8896,-2.894,-2.8958,-2.8984,-2.899,-2.9001,-2.9025,-2.9032,-2.9081,-2.907,-2.91,-2.9158,-2.9176,-2.9192,-2.9266,-2.9256,-2.9276,-2.9313,-2.9343,-2.9352,-2.9359,-2.9383,-2.9393,-2.9282,-2.9282,-2.9282,0,-2.891,-2.8963,-2.8964,-2.9003,-2.9022,-2.9009,-2.9053,-2.907,-2.9106,-2.9119,-2.9103,-2.9173,-2.9189,-2.9249,-2.9266,-2.9281,-2.9292,-2.9273,-2.935,-2.9358,-2.9364,-2.9388,-2.9397,-2.9284,-2.9284,-2.9284,-2.9284,0,-2.8999,-2.9036,-2.9069,-2.9102,-2.9125,-2.9167,-2.9173,-2.9195,-2.9192,-2.9199,-2.9249,-2.9268,-2.9302,-2.9316,-2.9314,-2.9374,-2.9365,-2.935,-2.9321,-2.9376,-2.9398,-2.9408,-2.9288,-2.9287,-2.9286,-2.9286,0,0,-2.9089,-2.9122,-2.9133,-2.9148,-2.9175,-2.9203,-2.9243,-2.9276,-2.9295,-2.932,-2.9352,-2.94,-2.9385,-2.9404,-2.9404,-2.9431,-2.9485,-2.9412,-2.9412,-2.9424,-2.9552,-2.9562,-2.9573,-2.9479,-2.9481,-2.9482,-2.9549,0,-2.9159,-2.923,-2.9231,-2.9295,-2.9328,-2.9315,-2.935,-2.937,-2.9378,-2.9406,-2.9414,-2.9447,-2.9427,-2.9438,-2.9464,-2.9473,-2.9511,-2.9469,-2.9508,-2.951,-2.9501,-2.9585,-2.9596,-2.9659,-2.9558,-2.9559,-2.956,0,-2.9251,-2.9278,-2.9345,-2.9366,-2.938,-2.9411,-2.944,-2.9468,-2.949,-2.9493,-2.9513,-2.9508,-2.9547,-2.9518,-2.9572,-2.9543,-2.9559,-2.9566,-2.9568,-2.9571,-2.9538,-2.9589,-2.9679,-2.9688,-2.9574,-2.9573,-2.9572,0,-2.9308,-2.9361,-2.9407,-2.942,-2.9446,-2.9468,-2.948,-2.9499,-2.9518,-2.9544,-2.9556,-2.9586,-2.9602,-2.9625,-2.9627,-2.9605,-2.968,-2.9651,-2.9683,-2.9683,-2.9699,-2.9698,-2.9792,-2.9711,-2.9711,-2.9711,-2.9711,0,-2.9386,-2.9428,-2.9433,-2.9462,-2.9507,-2.9507,-2.9552,-2.9562,-2.9579,-2.9608,-2.9599,-2.9627,-2.9629,-2.9657,-2.9659,-2.9702,-2.971,-2.9713,-2.9713,-2.9714,-2.9713,-2.9724,-2.9719,-2.9714,-2.9713,-2.9713,-2.9712,0,-2.9457,-2.9463,-2.9513,-2.9532,-2.9538,-2.9571,-2.9587,-2.9614,-2.962,-2.9657,-2.9666,-2.9675,-2.9708,-2.9712,-2.9751,-2.9752,-2.9803,-2.9799,-2.9796,-2.9795,-2.9826,-2.9822,-2.9929,-2.9943,-2.9854,-2.9855,-2.9856,0,-2.9506,-2.9538,-2.956,-2.9579,-2.9592,-2.9623,-2.9642,-2.9642,-2.9662,-2.9688,-2.9711,-2.9743,-2.9768,-2.982,-2.983,-2.9859,-2.9855,-2.989,-2.9859,-2.9858,-2.9854,-2.9851,-2.9854,-2.9896,-2.9897,-2.9898,-2.9898,0,-2.9592,-2.9593,-2.9621,-2.9649,-2.9672,-2.9694,-2.9715,-2.9731,-2.9734,-2.9756,-2.9789,-2.9809,-2.9847,-2.9878,-2.9906,-2.9917,-2.9908,-2.9908,-2.9917,-2.9917,-2.9913,-2.9914,-2.9811,-2.9906,-2.9905,-2.9904,-2.9904,-2.9904,-2.9653,-2.9679,-2.9699,-2.9729,-2.9745,-2.9764,-2.979,-2.9798,-2.9826,-2.9857,-2.9855,-2.9891,-2.991,-2.9946,-2.9959,-2.9987,-2.9975,-2.9988,-2.9991,-2.9994,-2.9996,-2.9909,-2.9992,-2.9992,-2.9992,-2.9991,-2.9991,0,-2.9737,-2.9748,-2.9777,-2.9806,-2.9829,-2.9818,-2.984,-2.9861,-2.9892,-2.9911,-2.9935,-2.9972,-3.0001,-3.0013,-3.0041,-3.0061,-3.0057,-3.0068,-3.0066,-3.0068,-3.0006,-2.9995,-3.007,-3.007,-3.007,-3.007,-3.007,-3.007,-2.9783,-2.9827,-2.983,-2.988,-2.9891,-2.9926,-2.9939,-2.9956,-2.9971,-3.0012,-3.0036,-3.0043,-3.0058,-3.0088,-3.0114,-3.0116,-3.0126,-3.0139,-3.014,-3.0081,-3.0073,-3.0065,-3.0055,-3.0142,-3.0142,-3.0199,-3.02,-3.02]}]]